TimeMST,TemperatureF,Dew PointF,Humidity,Sea Level PressureIn,VisibilityMPH,Wind Direction,Wind SpeedMPH,Gust SpeedMPH,PrecipitationIn,Events,Conditions,WindDirDegrees,DateUTC
5:00 AM,41,23,36,29.81,15,West,27.6,,,,Clear,270,2013-01-18 12:00:00
5:00 AM,41.0,23.0,49,29.81,15.0,West,27.6,35.7,N/A,,Mostly Cloudy,270,2013-01-18 12:00:00
6:00 AM,41.0,23.0,49,29.81,15.0,West,25.3,-,N/A,,Mostly Cloudy,270,2013-01-18 13:00:00
7:00 AM,41.0,23.0,49,29.81,15.0,West,18.4,28.8,N/A,,Mostly Cloudy,280,2013-01-18 14:00:00
8:00 AM,39.2,23.0,52,29.82,20.0,West,21.9,-,N/A,,Mostly Cloudy,270,2013-01-18 15:00:00
9:00 AM,37.4,23.0,56,29.83,30.0,West,13.8,-,N/A,,Mostly Cloudy,270,2013-01-18 16:00:00
10:00 AM,39.2,23.0,52,29.84,30.0,West,20.7,-,N/A,,Mostly Cloudy,260,2013-01-18 17:00:00
11:00 AM,42,23,33,29.83,28,West,24.2,,,,Scattered Clouds,270,2013-01-18 18:00:00
11:00 AM,42.8,23.0,46,29.83,30.0,West,23.0,31.1,N/A,,Scattered Clouds,270,2013-01-18 18:00:00
12:00 PM,42.8,23.0,46,29.82,30.0,West,23.0,-,N/A,,Partly Cloudy,270,2013-01-18 19:00:00
1:00 PM,44.6,23.0,43,29.81,30.0,West,23.0,31.1,N/A,,Partly Cloudy,280,2013-01-18 20:00:00
2:00 PM,42.8,23.0,46,29.81,30.0,West,25.3,38.0,N/A,,Partly Cloudy,280,2013-01-18 21:00:00
3:00 PM,42.8,23.0,46,29.83,30.0,West,26.5,36.8,N/A,,Partly Cloudy,280,2013-01-18 22:00:00
4:00 PM,41.0,23.0,49,29.84,30.0,West,25.3,34.5,N/A,,Partly Cloudy,280,2013-01-18 23:00:00
5:00 PM,40,21,33,29.86,28,West,27.6,,,,Scattered Clouds,280,2013-01-19 00:00:00
5:00 PM,39.2,21.2,49,29.86,30.0,West,27.6,34.5,N/A,,Partly Cloudy,280,2013-01-19 00:00:00
6:00 PM,37.4,21.2,52,29.90,20.0,West,17.3,-,N/A,,Partly Cloudy,270,2013-01-19 01:00:00
7:00 PM,37.4,19.4,48,29.92,15.0,West,19.6,-,N/A,,Partly Cloudy,280,2013-01-19 02:00:00
7:51 PM,35.6,19.4,52,29.95,15.0,WNW,12.7,21.9,N/A,,Clear,300,2013-01-19 02:51:00
8:00 PM,33.8,19.4,56,29.96,15.0,NW,10.4,17.3,N/A,,Clear,310,2013-01-19 03:00:00
9:00 PM,32.0,17.6,55,30.00,15.0,NNE,29.9,-,N/A,,Clear,30,2013-01-19 04:00:00
10:00 PM,28.4,24.8,86,29.96,15.0,North,15.0,24.2,N/A,,Partly Cloudy,10,2013-01-19 05:00:00